User: anonymous   Login
Location: Fort Worth, Tx
(32.7431°N, 97.3695°W)
Time: 00:16:31
(UTC-04:00)
Language:

BlueWalker 3 - Orbit

View from above orbital plane
View from above orbital plane
View from above satellite
View from above satellite

Ground track
Ground track

The orbit data is extracted from the following two-line orbital elements,

1 53807U 22111AL  24108.34028674  .00013786  00000-0  55621-3 0  9996
2 53807  53.2392 113.8146 0007358 277.0993  82.9169 15.25077871 88940
Epoch (UTC): 17 April 2024 08:10:00
Eccentricity: 0.0007358
inclination: 53.2392°
perigee height: 485 km
apogee height: 495 km
right ascension of ascending node: 113.8146°
argument of perigee: 277.0993°
revolutions per day: 15.25077871
mean anomaly at epoch: 82.9169°
orbit number at epoch: 8894

The dashed part of the orbit path shows where the satellite is in the earth's shadow,  

DLR